Home > Weather > Perm > Past weeks

Flag for Russia Past Weather in Perm, Russia — Yesterday and Last 2 Weeks

Now
70 °F

Scattered clouds.


Feels Like: 70 °F
Forecast: 56 / 78 °F
Wind: 3 mph from West

Location: Perm'/Bolshoe Savino

Current Time: Jul 29, 2016 at 11:00:32 PM

Latest Report: Jul 29, 2016 at 10:00 PM


Visibility: N/A

Pressure: 29.80 "Hg

Humidity: 78%

Dew Point: 63 °F

Location of PermLocation

Past Weather in Perm — Graph

°F

Perm Temperature Yesterday

Maximum temperature yesterday: 84 °F (at 4:30 PM)
Minimum temperature yesterday: 55 °F (at 5:30 AM)
Average temperature yesterday: 71 °F

High & Low Weather Summary for the Past Weeks

 TemperatureHumidityPressure
High84 °F (Jul 21, 4:00 PM)100% (Jul 18, 1:30 AM)30.12 "Hg (Jul 18, 1:30 AM)
Low52 °F (Jul 25, 5:30 AM)28% (Jul 26, 4:00 PM)29.65 "Hg (Jul 14, 10:00 PM)
Average70 °F68%29.90 "Hg
* Reported Jul 14 10:00 PM — Jul 29 10:00 PM, Perm, Weather by CustomWeather, © 2016

Note: Actual official high and low records may vary slightly from our data, if they occured in-between our weather recording intervals... More about our weather records

Advertising

Perm Weather History for the Previous 24 Hours

Scroll right to see more
 ConditionsComfort  
Time TempWeatherWind HumidityBarometerVisibility
10:00 PM
Fri, Jul 29
70 °FScattered clouds.3 mph78%29.80 "HgN/A
9:30 PM72 °FScattered clouds.3 mph69%29.80 "HgN/A
9:00 PM73 °FScattered clouds.1 mph69%29.80 "HgN/A
8:30 PM73 °FScattered clouds.3 mph74%29.80 "HgN/A
8:00 PM77 °FScattered clouds.3 mph65%29.77 "HgN/A
7:30 PM75 °FScattered clouds.1 mph65%29.80 "HgN/A
7:00 PM75 °FScattered clouds.1 mph65%29.77 "HgN/A
6:30 PM77 °FScattered clouds.6 mph65%29.77 "HgN/A
6:00 PM77 °FScattered clouds.1 mph65%29.77 "HgN/A
5:30 PM77 °FThunderstorms. Scattered clouds.1 mph65%29.77 "HgN/A
5:00 PM72 °FScattered clouds.6 mph69%29.77 "HgN/A
4:30 PM84 °FScattered clouds.6 mph37%29.77 "HgN/A
4:00 PM84 °FPassing clouds.3 mph37%29.77 "HgN/A
3:30 PM82 °FPassing clouds.3 mph42%29.77 "HgN/A
3:00 PM81 °FPassing clouds.3 mph51%29.77 "HgN/A
2:30 PM81 °FPassing clouds.6 mph54%29.77 "HgN/A
2:00 PM79 °FPassing clouds.6 mph58%29.77 "HgN/A
1:30 PM75 °FScattered clouds.3 mph69%29.80 "HgN/A
1:00 PM77 °FScattered clouds.3 mph69%29.80 "HgN/A
12:30 PM70 °FThunderstorms. Scattered clouds.3 mph88%29.80 "HgN/A
12:00 PM77 °FSprinkles. Scattered clouds.8 mph65%29.80 "HgN/A
11:30 AM77 °FScattered clouds.6 mph61%29.80 "HgN/A
11:00 AM75 °FScattered clouds.6 mph69%29.80 "HgN/A
10:30 AM73 °FPassing clouds.6 mph74%29.80 "HgN/A
10:00 AM72 °FPassing clouds.8 mph78%29.83 "HgN/A
9:30 AM72 °FPassing clouds.6 mph78%29.80 "HgN/A
9:00 AM70 °FPassing clouds.6 mph83%29.80 "HgN/A
8:30 AM70 °FSunny.6 mph83%29.80 "Hg10 mi
8:00 AM66 °FSunny.6 mph88%29.80 "Hg10 mi
7:30 AM66 °FClear.6 mph88%29.80 "Hg6 mi
7:00 AM63 °FClear.6 mph94%29.80 "Hg6 mi
6:30 AM63 °FClear.6 mph94%29.80 "Hg6 mi
6:00 AM61 °FClear.6 mph94%29.80 "Hg6 mi
5:30 AM61 °FClear.6 mph94%29.80 "Hg10 mi
5:00 AM61 °FFog.3 mph94%29.80 "Hg6 mi
4:30 AM59 °FFog.6 mph94%29.80 "HgN/A
4:00 AM59 °FFog.6 mph94%29.80 "HgN/A
3:30 AM59 °FClear.3 mph94%29.80 "Hg6 mi
3:00 AM61 °FClear.6 mph94%29.80 "Hg10 mi
2:30 AM61 °FClear.3 mph94%29.80 "Hg10 mi
2:00 AM63 °FClear.8 mph88%29.80 "Hg6 mi
1:30 AM63 °FClear.6 mph94%29.80 "Hg10 mi
1:00 AM61 °FClear.6 mph94%29.80 "Hg6 mi
12:30 AM64 °FClear.No wind88%29.80 "Hg6 mi
12:00 AM64 °FClear.No wind88%29.80 "Hg10 mi
11:30 PM
Thu, Jul 28
66 °FClear.1 mph88%29.83 "Hg10 mi
11:00 PM68 °FClear.3 mph83%29.83 "Hg6 mi
Weather by CustomWeather, © 2016

See weather overviewHow to use our weather pages